{"data":{"norad_id":66454,"intl_designator":"2025-261A","name":"VIASAT-3 F2","alt_names":[],"object_type":"PAYLOAD","status":"ACTIVE","operator":null,"country":"US","launch_date":"2025-11-14","launch_site_code":"AFETR","launch_vehicle":null,"mission":null,"orbit_class":"UNKNOWN","rcs_meters":null,"size_class":null,"mass_kg":null,"dimensions":null,"purposes":["comms"],"wikipedia_slug":null,"has_3d_model":false,"image_url":null,"decayed_at":null,"tle_current":{"epoch":"2026-05-24T23:30:38.519136Z","epoch_age_seconds":77639,"freshness":"FRESH","line1":"1 66454U 25261A   26144.97961249 -.00000236  00000+0  00000+0 0  9995","line2":"2 66454   0.0259 196.8864 0000583 234.4647  84.9172  1.00271530  2564","mean_motion":1.0027153,"eccentricity":5.83e-5,"inclination_deg":0.0259,"raan_deg":196.8864,"arg_perigee_deg":234.4647,"mean_anomaly_deg":84.9172,"bstar":0,"rev_number":256,"period_min":1436.1005561599,"perigee_km":35784.208239058,"apogee_km":35789.12465514,"semimajor_km":42164.803447099,"source":"CELESTRAK","updated_at":"2026-05-25T13:38:14.155991Z"}}}